GW5507 Weather Reports


Display with metric or nautical units.
time (UTC)temp
F
wind
direction
speed
MPH
gust
MPH
rain 1hr
in
rain 24hr
in
rain mn
in
humidity
%
barometer
mb
20260504005948 53 249 0.0 0.0 0.00 0.00 0.00 57 1012.4
20260504005445 53 249 0.0 0.0 0.00 0.00 0.00 55 1012.6
20260504004943 54 249 0.0 0.0 0.00 0.00 0.00 55 1012.4
20260504004440 54 249 0.0 1.0 0.00 0.00 0.00 52 1012.3
20260504003937 55 241 1.0 1.0 0.00 0.00 0.00 51 1012.4
20260504003433 55 251 0.0 1.0 0.00 0.00 0.00 52 1012.3
20260504002930 55 251 0.0 1.0 0.00 0.00 0.00 50 1012.4
20260504002427 56 250 0.0 1.0 0.00 0.00 0.00 51 1012.5
20260504001924 56 248 1.0 1.0 0.00 0.00 0.00 49 1012.5
20260504001422 56 249 0.0 1.0 0.00 0.00 0.00 50 1012.4
20260504000918 57 238 2.0 2.0 0.00 0.00 0.00 48 1012.2
20260504000416 57 251 0.0 0.0 0.00 0.00 0.00 48 1012.3
20260503235912 57 246 1.0 1.0 0.00 0.00 0.00 47 1012.4
20260503235410 57 248 1.0 1.0 0.00 0.00 0.00 47 1012.3
20260503234908 57 262 1.0 2.0 0.00 0.00 0.00 45 1012.6
20260503234405 57 256 0.0 1.0 0.00 0.00 0.00 47 1012.4
20260503233903 57 265 2.0 3.0 0.00 0.00 0.00 45 1012.4
20260503233359 57 252 0.0 1.0 0.00 0.00 0.00 45 1012.3
20260503232855 58 256 0.0 0.0 0.00 0.00 0.00 46 1012.2
20260503232353 58 257 1.0 2.0 0.00 0.00 0.00 45 1012.3
20260503231850 58 269 2.0 3.0 0.00 0.00 0.00 45 1012.3
20260503231347 58 254 2.0 2.0 0.00 0.00 0.00 45 1012.3
20260503230843 58 252 2.0 2.0 0.00 0.00 0.00 44 1012.2
20260503230340 58 238 2.0 2.0 0.00 0.00 0.00 44 1012.2
20260503225838 59 288 2.0 2.0 0.00 0.00 0.00 44 1012.2
20260503225334 59 236 5.0 9.0 0.00 0.00 0.00 43 1012.4
20260503224830 59 253 3.0 3.0 0.00 0.00 0.00 42 1012.2
20260503224327 59 240 5.0 7.0 0.00 0.00 0.00 41 1012.2
20260503223825 60 250 5.0 8.0 0.00 0.00 0.00 43 1012.4
20260503223323 60 251 3.0 3.0 0.00 0.00 0.00 42 1012.3
20260503222818 60 261 2.0 3.0 0.00 0.00 0.00 42 1012.3
20260503222317 60 262 2.0 2.0 0.00 0.00 0.00 42 1012.5
20260503221815 60 206 4.0 6.0 0.00 0.00 0.00 39 1012.5
20260503221313 60 249 1.0 2.0 0.00 0.00 0.00 42 1012.5
20260503220809 60 254 0.0 0.0 0.00 0.00 0.00 40 1012.5
20260503220306 60 190 4.0 6.0 0.00 0.00 0.00 39 1012.5
20260503215802 60 273 3.0 5.0 0.00 0.00 0.00 40 1012.5
20260503215259 61 301 3.0 5.0 0.00 0.00 0.00 39 1012.5
20260503214757 61 246 1.0 1.0 0.00 0.00 0.00 39 1012.1
20260503214254 60 228 2.0 2.0 0.00 0.00 0.00 40 1012.3
20260503213752 60 284 1.0 1.0 0.00 0.00 0.00 40 1012.3
20260503213249 61 263 1.0 3.0 0.00 0.00 0.00 41 1012.2
20260503212746 62 260 2.0 3.0 0.00 0.00 0.00 40 1012.3
20260503212243 61 267 2.0 3.0 0.00 0.00 0.00 39 1012.1
20260503211741 62 297 4.0 5.0 0.00 0.00 0.00 39 1012.1
20260503211237 63 217 2.0 2.0 0.00 0.00 0.00 38 1012.2
20260503210732 62 284 3.0 3.0 0.00 0.00 0.00 39 1012.2
20260503210230 61 258 0.0 1.0 0.00 0.00 0.00 39 1012.3
20260503205725 63 257 2.0 2.0 0.00 0.00 0.00 37 1012.5
20260503205222 62 240 2.0 5.0 0.00 0.00 0.00 38 1012.4
20260503204718 62 319 4.0 8.0 0.00 0.00 0.00 39 1012.7
20260503204216 61 327 2.0 5.0 0.00 0.00 0.00 42 1012.4
20260503203713 59 266 1.0 2.0 0.00 0.00 0.00 42 1012.5
20260503203211 60 257 4.0 6.0 0.00 0.00 0.00 40 1012.4
20260503202708 60 274 2.0 2.0 0.00 0.00 0.00 43 1012.9
20260503202206 60 251 3.0 3.0 0.00 0.00 0.00 41 1012.7
20260503201703 60 253 1.0 1.0 0.00 0.00 0.00 40 1012.9
20260503201200 61 263 3.0 3.0 0.00 0.00 0.00 40 1013.0
20260503200656 62 265 2.0 2.0 0.00 0.00 0.00 39 1013.1
20260503200153 61 209 3.0 3.0 0.00 0.00 0.00 41 1013.2
20260503195650 63 246 1.0 2.0 0.00 0.00 0.00 39 1013.2
20260503195147 62 279 2.0 2.0 0.00 0.00 0.00 43 1013.1
20260503194644 60 300 3.0 3.0 0.00 0.00 0.00 40 1013.4
20260503194139 61 283 4.0 5.0 0.00 0.00 0.00 41 1013.7
20260503193637 60 252 1.0 1.0 0.00 0.00 0.00 46 1013.5
20260503193132 60 300 5.0 8.0 0.00 0.00 0.00 42 1013.6
20260503192628 61 271 2.0 3.0 0.00 0.00 0.00 42 1013.9
20260503192124 61 213 5.0 8.0 0.00 0.00 0.00 41 1013.8
20260503191621 60 277 2.0 3.0 0.00 0.00 0.00 43 1013.9
20260503191118 60 100 2.0 3.0 0.00 0.00 0.00 42 1014.0
20260503190615 61 52 1.0 3.0 0.00 0.00 0.00 43 1014.1
20260503190112 61 296 6.0 7.0 0.00 0.00 0.00 43 1013.9
20260503185608 61 273 4.0 5.0 0.00 0.00 0.00 43 1014.0
20260503185108 61 282 3.0 6.0 0.00 0.00 0.00 43 1014.1
20260503184604 61 254 3.0 3.0 0.00 0.00 0.00 44 1014.2
20260503184100 61 255 2.0 2.0 0.00 0.00 0.00 45 1014.2
20260503183557 61 257 2.0 3.0 0.00 0.00 0.00 42 1014.3
20260503183054 62 323 3.0 6.0 0.00 0.00 0.00 41 1014.4
20260503182553 60 238 2.0 3.0 0.00 0.00 0.00 42 1014.4
20260503182050 59 279 3.0 3.0 0.00 0.00 0.00 48 1014.3
20260503181547 60 287 1.0 3.0 0.00 0.00 0.00 45 1014.5
20260503181043 62 254 3.0 6.0 0.00 0.00 0.00 46 1014.6
20260503180541 61 259 2.0 3.0 0.00 0.00 0.00 47 1014.4
20260503180038 61 113 2.0 3.0 0.00 0.00 0.00 46 1014.7
20260503175535 60 270 2.0 2.0 0.00 0.00 0.00 45 1014.6
20260503175033 61 276 3.0 5.0 0.00 0.00 0.00 43 1014.6
20260503174530 61 286 3.0 3.0 0.00 0.00 0.00 46 1014.8
20260503174026 60 249 4.0 5.0 0.00 0.00 0.00 40 1015.0
20260503173521 60 227 3.0 6.0 0.00 0.00 0.00 44 1014.8
20260503173017 60 100 3.0 5.0 0.00 0.00 0.00 45 1015.0
20260503172515 60 275 5.0 6.0 0.00 0.00 0.00 43 1014.9
20260503172012 59 264 3.0 3.0 0.00 0.00 0.00 47 1014.7
20260503171508 60 227 2.0 5.0 0.00 0.00 0.00 45 1015.1
20260503171006 60 266 2.0 3.0 0.00 0.00 0.00 44 1015.1
20260503170502 60 262 1.0 2.0 0.00 0.00 0.00 46 1015.1
20260503150855 55 259 1.0 1.0 0.00 0.00 0.00 48 1016.0
20260503150351 55 253 0.0 1.0 0.00 0.00 0.00 45 1015.9
20260503140315 51 266 2.0 3.0 0.00 0.00 0.00 58 1016.4
20260503131244 45 261 1.0 1.0 0.00 0.00 0.00 74 1016.9
20260503130742 45 253 2.0 2.0 0.00 0.00 0.00 74 1017.2
20260503130239 43 253 3.0 3.0 0.00 0.00 0.00 79 1017.1
20260503120205 35 259 0.0 0.0 0.00 0.00 0.00 99 1016.5
20260503110632 30 254 0.0 0.0 0.00 0.00 0.00 99 1016.4
20260503110130 30 253 0.0 0.0 0.00 0.00 0.00 99 1016.1
20260503081446 32 254 0.0 0.0 0.00 0.00 0.00 99 1015.6
20260503080943 31 254 0.0 0.0 0.00 0.00 0.00 99 1015.7
20260503080439 31 254 0.0 0.0 0.00 0.00 0.00 99 1015.6
20260503072916 32 254 0.0 0.0 0.00 0.00 0.00 99 1015.6
20260503072413 32 254 0.0 0.0 0.00 0.00 0.00 99 1015.7
20260503071909 32 254 0.0 0.0 0.00 0.00 0.00 99 1015.5
20260503071407 32 254 0.0 0.0 0.00 0.00 0.00 99 1015.7
20260503070902 33 254 0.0 0.0 0.00 0.00 0.00 99 1015.5
20260503070400 33 254 0.0 0.0 0.00 0.00 0.00 99 1015.4
20260503060326 35 255 0.0 0.0 0.00 0.00 0.00 99 1015.7
20260503054814 35 255 0.0 0.0 0.00 0.00 0.00 99 1015.6
20260503054309 35 255 0.0 0.0 0.00 0.00 0.00 99 1015.6
20260503053808 35 255 0.0 0.0 0.00 0.00 0.00 99 1015.7
20260503053306 35 255 0.0 0.0 0.00 0.00 0.00 99 1015.9
20260503052802 35 255 0.0 0.0 0.00 0.00 0.00 99 1015.6
20260503052259 35 255 0.0 0.0 0.00 0.00 0.00 99 1015.8
20260503051754 35 255 0.0 0.0 0.00 0.00 0.00 99 1015.9
20260503051252 35 255 0.0 0.0 0.00 0.00 0.00 99 1016.0
20260503050748 35 256 0.0 0.0 0.00 0.00 0.00 99 1016.0
20260503050244 35 256 0.0 0.0 0.00 0.00 0.00 99 1015.8
20260503045742 35 256 0.0 0.0 0.00 0.00 0.00 99 1016.1
20260503045240 35 256 0.0 0.0 0.00 0.00 0.00 98 1016.0
20260503044736 35 256 0.0 0.0 0.00 0.00 0.00 98 1016.3
20260503044233 35 256 0.0 0.0 0.00 0.00 0.00 98 1016.1
20260503043730 35 256 0.0 0.0 0.00 0.00 0.00 98 1016.1
20260503043227 35 256 0.0 0.0 0.00 0.00 0.00 98 1015.9
20260503042723 36 256 0.0 0.0 0.00 0.00 0.00 98 1016.1
20260503042220 36 256 0.0 0.0 0.00 0.00 0.00 98 1016.1
20260503041716 36 256 0.0 0.0 0.00 0.00 0.00 97 1016.2
20260503041214 36 256 0.0 0.0 0.00 0.00 0.00 97 1015.9
20260503040711 36 256 0.0 0.0 0.00 0.00 0.00 97 1016.1
20260503040209 36 256 0.0 0.0 0.00 0.00 0.00 97 1016.1
20260503035705 36 256 0.0 0.0 0.00 0.02 0.02 97 1016.2
20260503035203 35 256 0.0 0.0 0.00 0.02 0.02 97 1016.1
20260503034700 35 256 0.0 0.0 0.00 0.02 0.02 96 1016.2
20260503034157 36 256 0.0 0.0 0.00 0.02 0.02 96 1016.3
20260503033654 35 256 0.0 0.0 0.00 0.02 0.02 96 1016.2
20260503033152 35 256 0.0 0.0 0.00 0.02 0.02 95 1016.1
20260503032650 35 256 0.0 0.0 0.00 0.02 0.02 95 1016.2
20260503032148 35 256 0.0 0.0 0.00 0.02 0.02 95 1016.2
20260503031645 35 256 0.0 0.0 0.00 0.02 0.02 94 1016.0
20260503031143 36 256 0.0 0.0 0.00 0.02 0.02 94 1016.2
20260503030638 35 256 0.0 0.0 0.00 0.02 0.02 92 1016.2
20260503030136 36 256 0.0 0.0 0.00 0.02 0.02 92 1016.1
20260503025632 37 256 0.0 0.0 0.00 0.02 0.02 92 1016.2
20260503025130 37 256 0.0 0.0 0.00 0.02 0.02 91 1016.1
20260503024626 37 256 0.0 0.0 0.00 0.02 0.02 90 1016.2
20260503024123 37 256 0.0 0.0 0.00 0.02 0.02 90 1016.2
20260503023621 37 256 0.0 0.0 0.00 0.02 0.02 88 1016.4
20260503023118 37 256 0.0 0.0 0.00 0.02 0.02 85 1016.4
20260503022613 38 256 0.0 0.0 0.00 0.02 0.02 84 1016.3
20260503022108 38 256 0.0 0.0 0.00 0.02 0.02 84 1016.1
20260503021606 39 256 0.0 0.0 0.00 0.02 0.02 83 1016.0
20260503021102 39 256 0.0 0.0 0.00 0.02 0.02 82 1016.2
20260503020559 40 256 0.0 0.0 0.00 0.02 0.02 82 1016.1
20260503020056 40 256 0.0 0.0 0.00 0.02 0.02 81 1016.1
20260503015553 40 256 0.0 0.0 0.00 0.02 0.02 81 1016.3
20260503015050 40 255 0.0 0.0 0.00 0.02 0.02 81 1016.1
20260503014546 40 256 0.0 0.0 0.00 0.02 0.02 81 1016.2
20260503014044 40 256 0.0 0.0 0.00 0.02 0.02 81 1016.3
20260503013541 40 256 0.0 0.0 0.00 0.02 0.02 81 1016.4
20260503013039 40 259 0.0 0.0 0.00 0.02 0.02 83 1016.2
20260503012536 40 257 0.0 0.0 0.00 0.02 0.02 83 1016.2
20260503012032 40 258 0.0 0.0 0.00 0.02 0.02 83 1016.4
20260503011529 40 259 0.0 0.0 0.00 0.02 0.02 83 1016.2
20260503011026 40 258 0.0 0.0 0.00 0.02 0.02 82 1016.2
20260503010522 40 256 0.0 0.0 0.00 0.02 0.02 81 1016.0